Location: Aalen
(48.8330°N, 10.1000°E)
Time: 20:37:02
(UTC+02:00)

S-56A Canister/Altair - Pass Details

Date: 01 August 2021
Orbit: 632 x 2500 km, 38.9° (Epoch: 19 September)

Event Time Altitude Azimuth Distance (km) Brightness Sun altitude
Rises 21:15:50 0° 278° (W) 6,162 13.6 -3.4°
Reaches altitude 10° 21:20:17 10° 272° (W) 5,167 12.8 -4.0°
Maximum altitude 21:33:10 37° 213° (SSW) 3,195 10.7 -5.7°
Drops below altitude 10° 21:43:53 10° 152° (SSE) 4,291 10.8 -7.2°
Enters shadow 21:45:26 - 148° (SSE) 4,626 10.9 -7.4°
Sets 21:47:14 0° 144° (SE) 5,041 - -7.6°
